Regional Weather Roundup
Issued by NWS

Home | Current Version | Previous Version | Text Only | Print | Product List | Glossary On
Versions: 1 2 3 4 5 6 7 8 9 10 11 12 13 14 15 16 17 18 19 20 21 22 23 24 25 26 27 28 29 30 31 32 33 34 35 36 37 38 39 40 41 42 43 44 45 46 47 48 49 50
000
ASUS43 KOAX 290710
RWRNE

WEATHER ROUNDUP FOR NEBRASKA
NATIONAL WEATHER SERVICE OMAHA NE
100 AM CST SAT NOV 29 2014

NOTES: SATELLITE DATA IS BEING USED TO AUGMENT CLOUD COVER ABOVE
       12000 FEET.
       "FAIR" INDICATES FEW OR NO CLOUDS BELOW 12,000 FEET WITH NO
       SIGNIFICANT WEATHER AND/OR OBSTRUCTIONS TO VISIBILITY.

  * THESE STATIONS DO NOT REPORT WEATHER SUCH AS RAIN...SNOW OR FOG.

NEZ001>004-019>022-054>056-290800-
NEBRASKA PANHANDLE

CITY           SKY/WX    TMP DP  RH WIND       PRES   REMARKS
SCOTTSBLUFF    CLOUDY    42  20  41 N6        29.64F
ALLIANCE       MOCLDY    41  19  41 SW6       29.64F
CHADRON        CLEAR    N/A N/A N/A SW9       29.58F
KIMBALL        CLOUDY    33  21  61 SW8       29.70F WCI  26
SIDNEY         CLOUDY    38  21  50 NW14      29.70F WCI  30
$$

NEZ057>060-069>072-079>082-290800-
SOUTHWEST NEBRASKA

CITY           SKY/WX    TMP DP  RH WIND       PRES   REMARKS
NORTH PLATTE   PTCLDY    27  21  78 W8        29.66F WCI  19
IMPERIAL       MOCLDY    41  21  44 NW8       29.67F
LEXINGTON      MOCLDY    32  18  56 N6        29.63F WCI  27
MCCOOK         CLOUDY    35  15  44 SW7       29.64F WCI  29
OGALLALA       MOCLDY    33  26  75 CALM      29.67F
$$

NEZ005>010-023>029-035>040-094-290800-
NORTH CENTRAL NEBRASKA

CITY           SKY/WX    TMP DP  RH WIND       PRES   REMARKS
VALENTINE      CLEAR     42  21  43 SW7       29.53S
AINSWORTH      CLEAR     45  21  38 SW13      29.53F
BROKEN BOW     PTCLDY    43  22  43 SW10      29.61S
O`NEILL        PTCLDY    47  25  43 SW9       29.52F
ORD            MOCLDY    51  20  29 W10       29.56F
THEDFORD       PTCLDY    54  21  27 W13       29.60S
$$

NEZ041-046>049-061>064-073>077-083>087-290800-
SOUTH CENTRAL NEBRASKA

CITY           SKY/WX    TMP DP  RH WIND       PRES   REMARKS
GRAND ISLAND   MOCLDY    46  20  35 W8        29.61F
AURORA         MOCLDY    37  23  59 SW7       29.60F WCI  31
HASTINGS       CLOUDY    44  20  38 SW7       29.61F
HEBRON         CLOUDY    47  31  51 SW10      29.64S
HOLDREGE       MOCLDY    51  13  22 CALM      29.62F
KEARNEY *      MOCLDY    48  16  27 W5        29.64F
YORK           MOCLDY    37  34  87 SW9       29.60F WCI  31
$$

NEZ011>018-030>034-042>045-290800-
NORTHEAST NEBRASKA

CITY           SKY/WX    TMP DP  RH WIND       PRES   REMARKS
NORFOLK        CLEAR     30  26  85 SW3       29.53F
ALBION         PTCLDY    46  22  39 N7        29.55F
BLAIR          PTCLDY    44  33  64 S7        29.57F
COLUMBUS *     PTCLDY    27  19  74 CALM      29.58F
FREMONT        PTCLDY    43  32  64 SW6       29.57F
TEKAMAH        CLEAR     30  24  78 SE9       29.55F WCI  22
WAYNE          PTCLDY    29  26  88 S5        29.53F WCI  24
$$

NEZ050>053-065>068-078-088>093-290800-
SOUTHEAST NEBRASKA

CITY           SKY/WX    TMP DP  RH WIND       PRES   REMARKS
LINCOLN        MOCLDY    43  32  65 S6        29.61F
OMAHA EPPLEY   MOCLDY    36  30  79 SE9       29.59F WCI  29
BEATRICE       MOCLDY    45  34  66 S9        29.63F
FALLS CITY     MOCLDY    50  37  61 SW8       29.64F
NEBRASKA CITY  MOCLDY    47  32  55 SW14      29.60F
PLATTSMOUTH    MOCLDY    46  32  59 S7        29.59F
$$

NEZ044-045-051>053-067-290800-
OMAHA AREA

CITY           SKY/WX    TMP DP  RH WIND       PRES   REMARKS
OMAHA EPPLEY   MOCLDY    36  30  79 SE9       29.59F WCI  29
BLAIR          PTCLDY    44  33  64 S7        29.57F
FREMONT        PTCLDY    43  32  64 SW6       29.57F
MILLARD        PTCLDY    32  29  88 CALM      29.59F
OFFUTT AFB     PTCLDY    31  28  88 CALM      29.58F
PLATTSMOUTH    MOCLDY    46  32  59 S7        29.59F
WAHOO          FAIR      43  31  63 SW5       29.58S
$$



USA.gov is the U.S. government's official web portal to all federal, state and local government web resources and services.